Tracking 18843 objects as of 20-November-2017
HD Live streaming from Space Station
objects crossing your sky now

FENGYUN 1C DEB

Track FENGYUN 1C DEB now!
10-day predictions


NORAD ID: 30903
Int'l Code: 1999-025AYR
Perigee: 841.9 km
Apogee: 984.2 km
Inclination: 99.4 °
Period: 103.1 minutes
Semi major axis: 7284 km
RCS: 0.016 m2 (small)
Launch date: May 10, 1999
Source: People's Republic of China (PRC)
Launch site: Taiyaun Space Center, China (TSC)

Note: This is SATELLITE DEBRIS
aabbcc
Your satellite tracking list
Your tracking list is empty




NASA's NSSDC Master Catalog

Two Line Element Set (TLE):
1 30903U 99025AYR 17324.19817397 -.00000174  00000-0 -89423-4 0  9996
2 30903  99.3577  85.4631 0097651 151.3305 328.0146 13.96499929547584
Source of the keplerian elements: AFSPC